owner,sensor,date,latitude,longitude,air_temperature,qcFlag 
DISL,ioos:station:DISL:MHPA:1,2008-04-01T00:00:00Z,30.6671,-87.9365,17.39,1111122 
DISL,ioos:station:DISL:MHPA:1,2008-04-01T00:30:00Z,30.6671,-87.9365,17.29,1111122 
DISL,ioos:station:DISL:MHPA:1,2008-04-01T01:00:00Z,30.6671,-87.9365,17.21,1111122 
DISL,ioos:station:DISL:MHPA:1,2008-04-01T01:30:00Z,30.6671,-87.9365,17.26,1111122 
DISL,ioos:station:DISL:MHPA:1,2008-04-01T02:00:00Z,30.6671,-87.9365,17.34,1111122 
DISL,ioos:station:DISL:MHPA:1,2008-04-01T02:30:00Z,30.6671,-87.9365,17.36,1111122 
DISL,ioos:station:DISL:MHPA:1,2008-04-01T03:00:00Z,30.6671,-87.9365,17.61,1111122 
DISL,ioos:station:DISL:MHPA:1,2008-04-01T03:30:00Z,30.6671,-87.9365,17.64,1111122 
DISL,ioos:station:DISL:MHPA:1,2008-04-01T04:00:00Z,30.6671,-87.9365,17.71,1111122 
DISL,ioos:station:DISL:MHPA:1,2008-04-01T04:30:00Z,30.6671,-87.9365,17.83,1111122 
DISL,ioos:station:DISL:MHPA:1,2008-04-01T05:00:00Z,30.6671,-87.9365,17.98,1111122 
DISL,ioos:station:DISL:MHPA:1,2008-04-01T05:30:00Z,30.6671,-87.9365,18.18,1111122 
DISL,ioos:station:DISL:MHPA:1,2008-04-01T06:00:00Z,30.6671,-87.9365,18.4,1111122 
DISL,ioos:station:DISL:MHPA:1,2008-04-01T06:30:00Z,30.6671,-87.9365,18.44,1111122 
DISL,ioos:station:DISL:MHPA:1,2008-04-01T07:00:00Z,30.6671,-87.9365,18.31,1111122 
DISL,ioos:station:DISL:MHPA:1,2008-04-01T07:30:00Z,30.6671,-87.9365,18.09,1111122 
DISL,ioos:station:DISL:MHPA:1,2008-04-01T08:00:00Z,30.6671,-87.9365,18.13,1111122 
DISL,ioos:station:DISL:MHPA:1,2008-04-01T08:30:00Z,30.6671,-87.9365,18.29,1111122 
DISL,ioos:station:DISL:MHPA:1,2008-04-01T09:00:00Z,30.6671,-87.9365,18.44,1111122 
DISL,ioos:station:DISL:MHPA:1,2008-04-01T09:30:00Z,30.6671,-87.9365,18.57,1111122 
DISL,ioos:station:DISL:MHPA:1,2008-04-01T10:00:00Z,30.6671,-87.9365,18.66,1111122 
DISL,ioos:station:DISL:MHPA:1,2008-04-01T10:30:00Z,30.6671,-87.9365,18.83,1111122 
DISL,ioos:station:DISL:MHPA:1,2008-04-01T11:00:00Z,30.6671,-87.9365,18.81,1111122 
DISL,ioos:station:DISL:MHPA:1,2008-04-01T11:30:00Z,30.6671,-87.9365,18.94,1111122 
DISL,ioos:station:DISL:MHPA:1,2008-04-01T12:00:00Z,30.6671,-87.9365,19.32,1111122 
DISL,ioos:station:DISL:MHPA:1,2008-04-01T12:30:00Z,30.6671,-87.9365,19.42,1111122 
DISL,ioos:station:DISL:MHPA:1,2008-04-01T13:00:00Z,30.6671,-87.9365,19.9,1111122 
DISL,ioos:station:DISL:MHPA:1,2008-04-01T13:30:00Z,30.6671,-87.9365,20.65,1111122 
DISL,ioos:station:DISL:MHPA:1,2008-04-01T14:00:00Z,30.6671,-87.9365,21.03,1111122 
DISL,ioos:station:DISL:MHPA:1,2008-04-01T14:30:00Z,30.6671,-87.9365,21.73,1111122 
DISL,ioos:station:DISL:MHPA:1,2008-04-01T15:00:00Z,30.6671,-87.9365,21.76,1111122 
DISL,ioos:station:DISL:MHPA:1,2008-04-01T15:30:00Z,30.6671,-87.9365,21.72,1111122 
DISL,ioos:station:DISL:MHPA:1,2008-04-01T16:00:00Z,30.6671,-87.9365,21.54,1111122 
DISL,ioos:station:DISL:MHPA:1,2008-04-01T16:30:00Z,30.6671,-87.9365,21.34,1111122 
DISL,ioos:station:DISL:MHPA:1,2008-04-01T17:00:00Z,30.6671,-87.9365,21.1,1111122 
DISL,ioos:station:DISL:MHPA:1,2008-04-01T17:30:00Z,30.6671,-87.9365,20.96,1111122 
DISL,ioos:station:DISL:MHPA:1,2008-04-01T18:00:00Z,30.6671,-87.9365,21.03,1111122 
DISL,ioos:station:DISL:MHPA:1,2008-04-01T18:30:00Z,30.6671,-87.9365,20.93,1111122 
DISL,ioos:station:DISL:MHPA:1,2008-04-01T19:00:00Z,30.6671,-87.9365,20.74,1111122 
DISL,ioos:station:DISL:MHPA:1,2008-04-01T19:30:00Z,30.6671,-87.9365,20.76,1111122 
DISL,ioos:station:DISL:MHPA:1,2008-04-01T20:00:00Z,30.6671,-87.9365,20.81,1111122 
DISL,ioos:station:DISL:MHPA:1,2008-04-01T20:30:00Z,30.6671,-87.9365,20.89,1111122 
DISL,ioos:station:DISL:MHPA:1,2008-04-01T21:00:00Z,30.6671,-87.9365,21.31,1111122 
DISL,ioos:station:DISL:MHPA:1,2008-04-01T21:30:00Z,30.6671,-87.9365,21.57,1111122 
DISL,ioos:station:DISL:MHPA:1,2008-04-01T22:00:00Z,30.6671,-87.9365,21.43,1111122 
DISL,ioos:station:DISL:MHPA:1,2008-04-01T22:30:00Z,30.6671,-87.9365,21.37,1111122 
DISL,ioos:station:DISL:MHPA:1,2008-04-01T23:00:00Z,30.6671,-87.9365,21.31,1111122 
DISL,ioos:station:DISL:MHPA:1,2008-04-01T23:30:00Z,30.6671,-87.9365,21.17,1111122 
DISL,ioos:station:DISL:MHPA:1,2008-04-02T00:00:00Z,30.6671,-87.9365,20.94,1111122 
DISL,ioos:station:DISL:MHPA:1,2008-04-02T00:30:00Z,30.6671,-87.9365,20.72,1111122 
DISL,ioos:station:DISL:MHPA:1,2008-04-02T01:00:00Z,30.6671,-87.9365,20.57,1111122 
DISL,ioos:station:DISL:MHPA:1,2008-04-02T01:30:00Z,30.6671,-87.9365,20.28,1111122 
DISL,ioos:station:DISL:MHPA:1,2008-04-02T02:00:00Z,30.6671,-87.9365,20.4,1111122 
DISL,ioos:station:DISL:MHPA:1,2008-04-02T02:30:00Z,30.6671,-87.9365,20.39,1111122 
DISL,ioos:station:DISL:MHPA:1,2008-04-02T03:00:00Z,30.6671,-87.9365,20.17,1111122 
DISL,ioos:station:DISL:MHPA:1,2008-04-02T03:30:00Z,30.6671,-87.9365,19.99,1111122 
DISL,ioos:station:DISL:MHPA:1,2008-04-02T04:00:00Z,30.6671,-87.9365,19.8,1111122 
DISL,ioos:station:DISL:MHPA:1,2008-04-02T04:30:00Z,30.6671,-87.9365,19.64,1111122 
DISL,ioos:station:DISL:MHPA:1,2008-04-02T05:00:00Z,30.6671,-87.9365,19.65,1111122 
DISL,ioos:station:DISL:MHPA:1,2008-04-02T05:30:00Z,30.6671,-87.9365,19.45,1111122 
DISL,ioos:station:DISL:MHPA:1,2008-04-02T06:00:00Z,30.6671,-87.9365,19.17,1111122 
DISL,ioos:station:DISL:MHPA:1,2008-04-02T06:30:00Z,30.6671,-87.9365,19.04,1111122 
DISL,ioos:station:DISL:MHPA:1,2008-04-02T07:00:00Z,30.6671,-87.9365,18.88,1111122 
DISL,ioos:station:DISL:MHPA:1,2008-04-02T07:30:00Z,30.6671,-87.9365,18.63,1111122 
DISL,ioos:station:DISL:MHPA:1,2008-04-02T08:00:00Z,30.6671,-87.9365,18.62,1111122 
DISL,ioos:station:DISL:MHPA:1,2008-04-02T08:30:00Z,30.6671,-87.9365,18.32,1111122 
DISL,ioos:station:DISL:MHPA:1,2008-04-02T09:00:00Z,30.6671,-87.9365,18.2,1111122 
DISL,ioos:station:DISL:MHPA:1,2008-04-02T09:30:00Z,30.6671,-87.9365,18.29,1111122 
DISL,ioos:station:DISL:MHPA:1,2008-04-02T10:00:00Z,30.6671,-87.9365,18.23,1111122 
DISL,ioos:station:DISL:MHPA:1,2008-04-02T10:30:00Z,30.6671,-87.9365,18.09,1111122 
DISL,ioos:station:DISL:MHPA:1,2008-04-02T11:00:00Z,30.6671,-87.9365,18.14,1111122 
DISL,ioos:station:DISL:MHPA:1,2008-04-02T11:30:00Z,30.6671,-87.9365,18.09,1111122 
DISL,ioos:station:DISL:MHPA:1,2008-04-02T12:00:00Z,30.6671,-87.9365,17.97,1111122 
DISL,ioos:station:DISL:MHPA:1,2008-04-02T12:30:00Z,30.6671,-87.9365,18.2,1111122 
DISL,ioos:station:DISL:MHPA:1,2008-04-02T13:00:00Z,30.6671,-87.9365,18.35,1111122 
DISL,ioos:station:DISL:MHPA:1,2008-04-02T13:30:00Z,30.6671,-87.9365,18.4,1111122 
DISL,ioos:station:DISL:MHPA:1,2008-04-02T14:00:00Z,30.6671,-87.9365,18.87,1111122 
DISL,ioos:station:DISL:MHPA:1,2008-04-02T14:30:00Z,30.6671,-87.9365,19.32,1111122 
DISL,ioos:station:DISL:MHPA:1,2008-04-02T15:00:00Z,30.6671,-87.9365,19.74,1111122 
DISL,ioos:station:DISL:MHPA:1,2008-04-02T15:30:00Z,30.6671,-87.9365,20.15,1111122 
DISL,ioos:station:DISL:MHPA:1,2008-04-02T16:00:00Z,30.6671,-87.9365,20.53,1111122 
DISL,ioos:station:DISL:MHPA:1,2008-04-02T16:30:00Z,30.6671,-87.9365,20.41,1111122 
DISL,ioos:station:DISL:MHPA:1,2008-04-02T17:00:00Z,30.6671,-87.9365,20.61,1111122 
DISL,ioos:station:DISL:MHPA:1,2008-04-02T17:30:00Z,30.6671,-87.9365,20.76,1111122 
DISL,ioos:station:DISL:MHPA:1,2008-04-02T18:00:00Z,30.6671,-87.9365,21.62,1111122 
DISL,ioos:station:DISL:MHPA:1,2008-04-02T18:30:00Z,30.6671,-87.9365,21.64,1111122 
DISL,ioos:station:DISL:MHPA:1,2008-04-02T19:00:00Z,30.6671,-87.9365,21.82,1111122 
DISL,ioos:station:DISL:MHPA:1,2008-04-02T19:30:00Z,30.6671,-87.9365,21.85,1111122 
DISL,ioos:station:DISL:MHPA:1,2008-04-02T20:00:00Z,30.6671,-87.9365,21.58,1111122 
DISL,ioos:station:DISL:MHPA:1,2008-04-02T20:30:00Z,30.6671,-87.9365,21.62,1111122 
DISL,ioos:station:DISL:MHPA:1,2008-04-02T21:00:00Z,30.6671,-87.9365,21.51,1111122 
DISL,ioos:station:DISL:MHPA:1,2008-04-02T21:30:00Z,30.6671,-87.9365,21.53,1111122 
DISL,ioos:station:DISL:MHPA:1,2008-04-02T22:00:00Z,30.6671,-87.9365,21.76,1111122 
DISL,ioos:station:DISL:MHPA:1,2008-04-02T22:30:00Z,30.6671,-87.9365,21.71,1111122 
DISL,ioos:station:DISL:MHPA:1,2008-04-02T23:00:00Z,30.6671,-87.9365,21.83,1111122 
DISL,ioos:station:DISL:MHPA:1,2008-04-02T23:30:00Z,30.6671,-87.9365,21.77,1111122 
DISL,ioos:station:DISL:MHPA:1,2008-04-03T00:00:00Z,30.6671,-87.9365,21.55,1111122 
DISL,ioos:station:DISL:MHPA:1,2008-04-03T00:30:00Z,30.6671,-87.9365,21.42,1111122 
DISL,ioos:station:DISL:MHPA:1,2008-04-03T01:00:00Z,30.6671,-87.9365,21.05,1111122 
DISL,ioos:station:DISL:MHPA:1,2008-04-03T01:30:00Z,30.6671,-87.9365,20.94,1111122 
DISL,ioos:station:DISL:MHPA:1,2008-04-03T02:00:00Z,30.6671,-87.9365,20.9,1111122 
DISL,ioos:station:DISL:MHPA:1,2008-04-03T02:30:00Z,30.6671,-87.9365,20.61,1111122 
DISL,ioos:station:DISL:MHPA:1,2008-04-03T03:00:00Z,30.6671,-87.9365,20.37,1111122 
DISL,ioos:station:DISL:MHPA:1,2008-04-03T03:30:00Z,30.6671,-87.9365,19.99,1111122 
DISL,ioos:station:DISL:MHPA:1,2008-04-03T04:00:00Z,30.6671,-87.9365,19.98,1111122 
DISL,ioos:station:DISL:MHPA:1,2008-04-03T04:30:00Z,30.6671,-87.9365,19.53,1111122 
DISL,ioos:station:DISL:MHPA:1,2008-04-03T05:00:00Z,30.6671,-87.9365,18.98,1111122 
DISL,ioos:station:DISL:MHPA:1,2008-04-03T05:30:00Z,30.6671,-87.9365,18.53,1111122 
DISL,ioos:station:DISL:MHPA:1,2008-04-03T06:00:00Z,30.6671,-87.9365,18.08,1111122 
DISL,ioos:station:DISL:MHPA:1,2008-04-03T06:30:00Z,30.6671,-87.9365,17.83,1111122 
DISL,ioos:station:DISL:MHPA:1,2008-04-03T07:00:00Z,30.6671,-87.9365,18.1,1111122 
DISL,ioos:station:DISL:MHPA:1,2008-04-03T07:30:00Z,30.6671,-87.9365,18.26,1111122 
DISL,ioos:station:DISL:MHPA:1,2008-04-03T08:00:00Z,30.6671,-87.9365,18.53,1111122 
DISL,ioos:station:DISL:MHPA:1,2008-04-03T08:30:00Z,30.6671,-87.9365,18.64,1111122 
DISL,ioos:station:DISL:MHPA:1,2008-04-03T09:00:00Z,30.6671,-87.9365,18.58,1111122 
DISL,ioos:station:DISL:MHPA:1,2008-04-03T09:30:00Z,30.6671,-87.9365,18.43,1111122 
DISL,ioos:station:DISL:MHPA:1,2008-04-03T10:00:00Z,30.6671,-87.9365,18.3,1111122 
DISL,ioos:station:DISL:MHPA:1,2008-04-03T10:30:00Z,30.6671,-87.9365,18.5,1111122 
DISL,ioos:station:DISL:MHPA:1,2008-04-03T11:00:00Z,30.6671,-87.9365,18.45,1111122 
DISL,ioos:station:DISL:MHPA:1,2008-04-03T11:30:00Z,30.6671,-87.9365,18.48,1111122 
DISL,ioos:station:DISL:MHPA:1,2008-04-03T12:00:00Z,30.6671,-87.9365,18.25,1111122 
DISL,ioos:station:DISL:MHPA:1,2008-04-03T12:30:00Z,30.6671,-87.9365,18.55,1111122 
DISL,ioos:station:DISL:MHPA:1,2008-04-03T13:00:00Z,30.6671,-87.9365,19.24,1111122 
DISL,ioos:station:DISL:MHPA:1,2008-04-03T13:30:00Z,30.6671,-87.9365,19.67,1111122 
DISL,ioos:station:DISL:MHPA:1,2008-04-03T14:00:00Z,30.6671,-87.9365,19.96,1111122 
DISL,ioos:station:DISL:MHPA:1,2008-04-03T14:30:00Z,30.6671,-87.9365,20.44,1111122 
DISL,ioos:station:DISL:MHPA:1,2008-04-03T15:00:00Z,30.6671,-87.9365,20.97,1111122 
DISL,ioos:station:DISL:MHPA:1,2008-04-03T15:30:00Z,30.6671,-87.9365,21.47,1111122 
DISL,ioos:station:DISL:MHPA:1,2008-04-03T16:00:00Z,30.6671,-87.9365,21.7,1111122 
DISL,ioos:station:DISL:MHPA:1,2008-04-03T16:30:00Z,30.6671,-87.9365,21.65,1111122 
DISL,ioos:station:DISL:MHPA:1,2008-04-03T17:00:00Z,30.6671,-87.9365,21.94,1111122 
DISL,ioos:station:DISL:MHPA:1,2008-04-03T17:30:00Z,30.6671,-87.9365,22.28,1111122 
DISL,ioos:station:DISL:MHPA:1,2008-04-03T18:00:00Z,30.6671,-87.9365,22.22,1111122 
DISL,ioos:station:DISL:MHPA:1,2008-04-03T18:30:00Z,30.6671,-87.9365,22.1,1111122 
DISL,ioos:station:DISL:MHPA:1,2008-04-03T19:00:00Z,30.6671,-87.9365,22.29,1111122 
DISL,ioos:station:DISL:MHPA:1,2008-04-03T19:30:00Z,30.6671,-87.9365,22.27,1111122 
DISL,ioos:station:DISL:MHPA:1,2008-04-03T20:00:00Z,30.6671,-87.9365,22.52,1111122 
DISL,ioos:station:DISL:MHPA:1,2008-04-03T20:30:00Z,30.6671,-87.9365,22.31,1111122 
DISL,ioos:station:DISL:MHPA:1,2008-04-03T21:00:00Z,30.6671,-87.9365,22.46,1111122 
DISL,ioos:station:DISL:MHPA:1,2008-04-03T21:30:00Z,30.6671,-87.9365,22.51,1111122 
DISL,ioos:station:DISL:MHPA:1,2008-04-03T22:00:00Z,30.6671,-87.9365,22.85,1111122 
DISL,ioos:station:DISL:MHPA:1,2008-04-03T22:30:00Z,30.6671,-87.9365,23.12,1111122 
DISL,ioos:station:DISL:MHPA:1,2008-04-03T23:00:00Z,30.6671,-87.9365,23.2,1111122 
DISL,ioos:station:DISL:MHPA:1,2008-04-03T23:30:00Z,30.6671,-87.9365,23.02,1111122 
DISL,ioos:station:DISL:MHPA:1,2008-04-04T00:00:00Z,30.6671,-87.9365,22.95,1111122 
DISL,ioos:station:DISL:MHPA:1,2008-04-04T00:30:00Z,30.6671,-87.9365,22.67,1111122 
DISL,ioos:station:DISL:MHPA:1,2008-04-04T01:00:00Z,30.6671,-87.9365,22.38,1111122 
DISL,ioos:station:DISL:MHPA:1,2008-04-04T01:30:00Z,30.6671,-87.9365,22.1,1111122 
DISL,ioos:station:DISL:MHPA:1,2008-04-04T02:00:00Z,30.6671,-87.9365,22.07,1111122 
DISL,ioos:station:DISL:MHPA:1,2008-04-04T02:30:00Z,30.6671,-87.9365,21.91,1111122 
DISL,ioos:station:DISL:MHPA:1,2008-04-04T03:00:00Z,30.6671,-87.9365,21.96,1111122 
DISL,ioos:station:DISL:MHPA:1,2008-04-04T03:30:00Z,30.6671,-87.9365,22.03,1111122 
DISL,ioos:station:DISL:MHPA:1,2008-04-04T04:00:00Z,30.6671,-87.9365,21.98,1111122 
DISL,ioos:station:DISL:MHPA:1,2008-04-04T04:30:00Z,30.6671,-87.9365,22.12,1111122 
DISL,ioos:station:DISL:MHPA:1,2008-04-04T05:00:00Z,30.6671,-87.9365,22.21,1111122 
DISL,ioos:station:DISL:MHPA:1,2008-04-04T05:30:00Z,30.6671,-87.9365,22.23,1111122 
DISL,ioos:station:DISL:MHPA:1,2008-04-04T06:00:00Z,30.6671,-87.9365,22.23,1111122 
DISL,ioos:station:DISL:MHPA:1,2008-04-04T06:30:00Z,30.6671,-87.9365,22.28,1111122 
DISL,ioos:station:DISL:MHPA:1,2008-04-04T07:00:00Z,30.6671,-87.9365,22.35,1111122 
DISL,ioos:station:DISL:MHPA:1,2008-04-04T07:30:00Z,30.6671,-87.9365,22.36,1111122 
DISL,ioos:station:DISL:MHPA:1,2008-04-04T08:00:00Z,30.6671,-87.9365,22.25,1111122 
DISL,ioos:station:DISL:MHPA:1,2008-04-04T08:30:00Z,30.6671,-87.9365,22.38,1111122 
DISL,ioos:station:DISL:MHPA:1,2008-04-04T09:00:00Z,30.6671,-87.9365,22.5,1111122 
DISL,ioos:station:DISL:MHPA:1,2008-04-04T09:30:00Z,30.6671,-87.9365,22.51,1111122 
DISL,ioos:station:DISL:MHPA:1,2008-04-04T10:00:00Z,30.6671,-87.9365,22.4,1111122 
DISL,ioos:station:DISL:MHPA:1,2008-04-04T10:30:00Z,30.6671,-87.9365,22.47,1111122 
DISL,ioos:station:DISL:MHPA:1,2008-04-04T11:00:00Z,30.6671,-87.9365,22.46,1111122 
DISL,ioos:station:DISL:MHPA:1,2008-04-04T11:30:00Z,30.6671,-87.9365,22.49,1111122 
DISL,ioos:station:DISL:MHPA:1,2008-04-04T12:00:00Z,30.6671,-87.9365,22.46,1111122 
DISL,ioos:station:DISL:MHPA:1,2008-04-04T12:30:00Z,30.6671,-87.9365,22.57,1111122 
DISL,ioos:station:DISL:MHPA:1,2008-04-04T13:00:00Z,30.6671,-87.9365,22.79,1111122 
DISL,ioos:station:DISL:MHPA:1,2008-04-04T13:30:00Z,30.6671,-87.9365,22.78,1111122 
DISL,ioos:station:DISL:MHPA:1,2008-04-04T14:00:00Z,30.6671,-87.9365,22.79,1111122 
DISL,ioos:station:DISL:MHPA:1,2008-04-04T14:30:00Z,30.6671,-87.9365,23.02,1111122 
DISL,ioos:station:DISL:MHPA:1,2008-04-04T15:00:00Z,30.6671,-87.9365,23.19,1111122 
DISL,ioos:station:DISL:MHPA:1,2008-04-04T15:30:00Z,30.6671,-87.9365,23.2,1111122 
DISL,ioos:station:DISL:MHPA:1,2008-04-04T16:00:00Z,30.6671,-87.9365,23.29,1111122 
DISL,ioos:station:DISL:MHPA:1,2008-04-04T16:30:00Z,30.6671,-87.9365,23.71,1111122 
DISL,ioos:station:DISL:MHPA:1,2008-04-04T17:00:00Z,30.6671,-87.9365,23.75,1111122 
DISL,ioos:station:DISL:MHPA:1,2008-04-04T17:30:00Z,30.6671,-87.9365,23.85,1111122 
DISL,ioos:station:DISL:MHPA:1,2008-04-04T18:00:00Z,30.6671,-87.9365,23.94,1111122 
DISL,ioos:station:DISL:MHPA:1,2008-04-04T18:30:00Z,30.6671,-87.9365,23.96,1111122 
DISL,ioos:station:DISL:MHPA:1,2008-04-04T19:00:00Z,30.6671,-87.9365,23.9,1111122 
DISL,ioos:station:DISL:MHPA:1,2008-04-04T19:30:00Z,30.6671,-87.9365,23.82,1111122 
DISL,ioos:station:DISL:MHPA:1,2008-04-04T20:00:00Z,30.6671,-87.9365,23.84,1111122 
DISL,ioos:station:DISL:MHPA:1,2008-04-04T20:30:00Z,30.6671,-87.9365,23.8,1111122 
DISL,ioos:station:DISL:MHPA:1,2008-04-04T21:00:00Z,30.6671,-87.9365,23.74,1111122 
DISL,ioos:station:DISL:MHPA:1,2008-04-04T21:30:00Z,30.6671,-87.9365,23.69,1111122 
DISL,ioos:station:DISL:MHPA:1,2008-04-04T22:00:00Z,30.6671,-87.9365,23.76,1111122 
DISL,ioos:station:DISL:MHPA:1,2008-04-04T22:30:00Z,30.6671,-87.9365,23.78,1111122 
DISL,ioos:station:DISL:MHPA:1,2008-04-04T23:00:00Z,30.6671,-87.9365,23.69,1111122 
DISL,ioos:station:DISL:MHPA:1,2008-04-04T23:30:00Z,30.6671,-87.9365,23.58,1111122 
DISL,ioos:station:DISL:MHPA:1,2008-04-05T00:00:00Z,30.6671,-87.9365,23.46,1111122 
DISL,ioos:station:DISL:MHPA:1,2008-04-05T00:30:00Z,30.6671,-87.9365,23.43,1111122 
DISL,ioos:station:DISL:MHPA:1,2008-04-05T01:00:00Z,30.6671,-87.9365,23.4,1111122 
DISL,ioos:station:DISL:MHPA:1,2008-04-05T01:30:00Z,30.6671,-87.9365,23.45,1111122 
DISL,ioos:station:DISL:MHPA:1,2008-04-05T02:00:00Z,30.6671,-87.9365,23.38,1111122 
DISL,ioos:station:DISL:MHPA:1,2008-04-05T02:30:00Z,30.6671,-87.9365,23.38,1111122 
DISL,ioos:station:DISL:MHPA:1,2008-04-05T03:00:00Z,30.6671,-87.9365,23.23,1111122 
DISL,ioos:station:DISL:MHPA:1,2008-04-05T03:30:00Z,30.6671,-87.9365,19.47,1111122 
DISL,ioos:station:DISL:MHPA:1,2008-04-05T04:00:00Z,30.6671,-87.9365,18.91,1111122 
DISL,ioos:station:DISL:MHPA:1,2008-04-05T04:30:00Z,30.6671,-87.9365,18.86,1111122 
DISL,ioos:station:DISL:MHPA:1,2008-04-05T05:00:00Z,30.6671,-87.9365,18.45,1111122 
DISL,ioos:station:DISL:MHPA:1,2008-04-05T05:30:00Z,30.6671,-87.9365,18.28,1111122 
DISL,ioos:station:DISL:MHPA:1,2008-04-05T06:00:00Z,30.6671,-87.9365,18.2,1111122 
DISL,ioos:station:DISL:MHPA:1,2008-04-05T06:30:00Z,30.6671,-87.9365,18.24,1111122 
DISL,ioos:station:DISL:MHPA:1,2008-04-05T07:00:00Z,30.6671,-87.9365,18.32,1111122 
DISL,ioos:station:DISL:MHPA:1,2008-04-05T07:30:00Z,30.6671,-87.9365,17.62,1111122 
DISL,ioos:station:DISL:MHPA:1,2008-04-05T08:00:00Z,30.6671,-87.9365,17.61,1111122 
DISL,ioos:station:DISL:MHPA:1,2008-04-05T08:30:00Z,30.6671,-87.9365,17.67,1111122 
DISL,ioos:station:DISL:MHPA:1,2008-04-05T09:00:00Z,30.6671,-87.9365,17.79,1111122 
DISL,ioos:station:DISL:MHPA:1,2008-04-05T09:30:00Z,30.6671,-87.9365,17.76,1111122 
DISL,ioos:station:DISL:MHPA:1,2008-04-05T10:00:00Z,30.6671,-87.9365,17.65,1111122 
DISL,ioos:station:DISL:MHPA:1,2008-04-05T10:30:00Z,30.6671,-87.9365,17.61,1111122 
DISL,ioos:station:DISL:MHPA:1,2008-04-05T11:00:00Z,30.6671,-87.9365,17.76,1111122 
DISL,ioos:station:DISL:MHPA:1,2008-04-05T11:30:00Z,30.6671,-87.9365,17.94,1111122 
DISL,ioos:station:DISL:MHPA:1,2008-04-05T12:00:00Z,30.6671,-87.9365,17.94,1111122 
DISL,ioos:station:DISL:MHPA:1,2008-04-05T12:30:00Z,30.6671,-87.9365,17.93,1111122 
DISL,ioos:station:DISL:MHPA:1,2008-04-05T13:00:00Z,30.6671,-87.9365,18.11,1111122 
DISL,ioos:station:DISL:MHPA:1,2008-04-05T13:30:00Z,30.6671,-87.9365,18.17,1111122 
DISL,ioos:station:DISL:MHPA:1,2008-04-05T14:00:00Z,30.6671,-87.9365,17.98,1111122 
DISL,ioos:station:DISL:MHPA:1,2008-04-05T14:30:00Z,30.6671,-87.9365,18.11,1111122 
DISL,ioos:station:DISL:MHPA:1,2008-04-05T15:00:00Z,30.6671,-87.9365,18.3,1111122 
DISL,ioos:station:DISL:MHPA:1,2008-04-05T15:30:00Z,30.6671,-87.9365,18.51,1111122 
DISL,ioos:station:DISL:MHPA:1,2008-04-05T16:00:00Z,30.6671,-87.9365,18.53,1111122 
DISL,ioos:station:DISL:MHPA:1,2008-04-05T16:30:00Z,30.6671,-87.9365,18.79,1111122 
DISL,ioos:station:DISL:MHPA:1,2008-04-05T17:00:00Z,30.6671,-87.9365,18.44,1111122 
DISL,ioos:station:DISL:MHPA:1,2008-04-05T17:30:00Z,30.6671,-87.9365,18.58,1111122 
DISL,ioos:station:DISL:MHPA:1,2008-04-05T18:00:00Z,30.6671,-87.9365,17.84,1111122 
DISL,ioos:station:DISL:MHPA:1,2008-04-05T18:30:00Z,30.6671,-87.9365,17.5,1111122 
DISL,ioos:station:DISL:MHPA:1,2008-04-05T19:00:00Z,30.6671,-87.9365,18.05,1111122 
DISL,ioos:station:DISL:MHPA:1,2008-04-05T19:30:00Z,30.6671,-87.9365,18.14,1111122 
DISL,ioos:station:DISL:MHPA:1,2008-04-05T20:00:00Z,30.6671,-87.9365,18.25,1111122 
DISL,ioos:station:DISL:MHPA:1,2008-04-05T20:30:00Z,30.6671,-87.9365,17.87,1111122 
DISL,ioos:station:DISL:MHPA:1,2008-04-05T21:00:00Z,30.6671,-87.9365,18.04,1111122 
DISL,ioos:station:DISL:MHPA:1,2008-04-05T21:30:00Z,30.6671,-87.9365,17.89,1111122 
DISL,ioos:station:DISL:MHPA:1,2008-04-05T22:00:00Z,30.6671,-87.9365,17.96,1111122 
DISL,ioos:station:DISL:MHPA:1,2008-04-05T22:30:00Z,30.6671,-87.9365,18.07,1111122 
DISL,ioos:station:DISL:MHPA:1,2008-04-05T23:00:00Z,30.6671,-87.9365,18.16,1111122 
DISL,ioos:station:DISL:MHPA:1,2008-04-05T23:30:00Z,30.6671,-87.9365,18.18,1111122 
DISL,ioos:station:DISL:MHPA:1,2008-04-06T00:00:00Z,30.6671,-87.9365,18.05,1111122 
DISL,ioos:station:DISL:MHPA:1,2008-04-06T00:30:00Z,30.6671,-87.9365,18.05,1111122 
DISL,ioos:station:DISL:MHPA:1,2008-04-06T01:00:00Z,30.6671,-87.9365,17.84,1111122 
DISL,ioos:station:DISL:MHPA:1,2008-04-06T01:30:00Z,30.6671,-87.9365,17.57,1111122 
DISL,ioos:station:DISL:MHPA:1,2008-04-06T02:00:00Z,30.6671,-87.9365,17.43,1111122 
DISL,ioos:station:DISL:MHPA:1,2008-04-06T02:30:00Z,30.6671,-87.9365,17.16,1111122 
DISL,ioos:station:DISL:MHPA:1,2008-04-06T03:00:00Z,30.6671,-87.9365,17.05,1111122 
DISL,ioos:station:DISL:MHPA:1,2008-04-06T03:30:00Z,30.6671,-87.9365,16.92,1111122 
DISL,ioos:station:DISL:MHPA:1,2008-04-06T04:00:00Z,30.6671,-87.9365,16.81,1111122 
DISL,ioos:station:DISL:MHPA:1,2008-04-06T04:30:00Z,30.6671,-87.9365,16.7,1111122 
DISL,ioos:station:DISL:MHPA:1,2008-04-06T05:00:00Z,30.6671,-87.9365,16.7,1111122 
DISL,ioos:station:DISL:MHPA:1,2008-04-06T05:30:00Z,30.6671,-87.9365,16.56,1111122 
DISL,ioos:station:DISL:MHPA:1,2008-04-06T06:00:00Z,30.6671,-87.9365,16.47,1111122 
DISL,ioos:station:DISL:MHPA:1,2008-04-06T06:30:00Z,30.6671,-87.9365,16.54,1111122 
DISL,ioos:station:DISL:MHPA:1,2008-04-06T07:00:00Z,30.6671,-87.9365,16.49,1111122 
DISL,ioos:station:DISL:MHPA:1,2008-04-06T07:30:00Z,30.6671,-87.9365,16.45,1111122 
DISL,ioos:station:DISL:MHPA:1,2008-04-06T08:00:00Z,30.6671,-87.9365,16.39,1111122 
DISL,ioos:station:DISL:MHPA:1,2008-04-06T08:30:00Z,30.6671,-87.9365,16.36,1111122 
DISL,ioos:station:DISL:MHPA:1,2008-04-06T09:00:00Z,30.6671,-87.9365,16.16,1111122 
DISL,ioos:station:DISL:MHPA:1,2008-04-06T09:30:00Z,30.6671,-87.9365,15.97,1111122 
DISL,ioos:station:DISL:MHPA:1,2008-04-06T10:00:00Z,30.6671,-87.9365,15.96,1111122 
DISL,ioos:station:DISL:MHPA:1,2008-04-06T10:30:00Z,30.6671,-87.9365,15.74,1111122 
DISL,ioos:station:DISL:MHPA:1,2008-04-06T11:00:00Z,30.6671,-87.9365,15.57,1111122 
DISL,ioos:station:DISL:MHPA:1,2008-04-06T11:30:00Z,30.6671,-87.9365,15.43,1111122 
DISL,ioos:station:DISL:MHPA:1,2008-04-06T12:00:00Z,30.6671,-87.9365,15.31,1111122 
DISL,ioos:station:DISL:MHPA:1,2008-04-06T12:30:00Z,30.6671,-87.9365,15.28,1111122 
DISL,ioos:station:DISL:MHPA:1,2008-04-06T13:00:00Z,30.6671,-87.9365,15.18,1111122 
DISL,ioos:station:DISL:MHPA:1,2008-04-06T13:30:00Z,30.6671,-87.9365,15.49,1111122 
DISL,ioos:station:DISL:MHPA:1,2008-04-06T14:00:00Z,30.6671,-87.9365,15.67,1111122 
DISL,ioos:station:DISL:MHPA:1,2008-04-06T14:30:00Z,30.6671,-87.9365,16.11,1111122 
DISL,ioos:station:DISL:MHPA:1,2008-04-06T15:00:00Z,30.6671,-87.9365,16.8,1111122 
DISL,ioos:station:DISL:MHPA:1,2008-04-06T15:30:00Z,30.6671,-87.9365,17.95,1111122 
DISL,ioos:station:DISL:MHPA:1,2008-04-06T16:00:00Z,30.6671,-87.9365,18.37,1111122 
DISL,ioos:station:DISL:MHPA:1,2008-04-06T16:30:00Z,30.6671,-87.9365,18.67,1111122 
DISL,ioos:station:DISL:MHPA:1,2008-04-06T17:00:00Z,30.6671,-87.9365,19.36,1111122 
DISL,ioos:station:DISL:MHPA:1,2008-04-06T17:30:00Z,30.6671,-87.9365,20.11,1111122 
DISL,ioos:station:DISL:MHPA:1,2008-04-06T18:00:00Z,30.6671,-87.9365,20.22,1111122 
DISL,ioos:station:DISL:MHPA:1,2008-04-06T18:30:00Z,30.6671,-87.9365,21.12,1111122 
DISL,ioos:station:DISL:MHPA:1,2008-04-06T19:00:00Z,30.6671,-87.9365,22.23,1111122 
DISL,ioos:station:DISL:MHPA:1,2008-04-06T19:30:00Z,30.6671,-87.9365,21.86,1111122 
DISL,ioos:station:DISL:MHPA:1,2008-04-06T20:00:00Z,30.6671,-87.9365,21.82,1111122 
DISL,ioos:station:DISL:MHPA:1,2008-04-06T20:30:00Z,30.6671,-87.9365,22.21,1111122 
DISL,ioos:station:DISL:MHPA:1,2008-04-06T21:00:00Z,30.6671,-87.9365,22.29,1111122 
DISL,ioos:station:DISL:MHPA:1,2008-04-06T21:30:00Z,30.6671,-87.9365,22.6,1111122 
DISL,ioos:station:DISL:MHPA:1,2008-04-06T22:00:00Z,30.6671,-87.9365,22.73,1111122 
DISL,ioos:station:DISL:MHPA:1,2008-04-06T22:30:00Z,30.6671,-87.9365,22.97,1111122 
DISL,ioos:station:DISL:MHPA:1,2008-04-06T23:00:00Z,30.6671,-87.9365,22.9,1111122 
DISL,ioos:station:DISL:MHPA:1,2008-04-06T23:30:00Z,30.6671,-87.9365,22.84,1111122 